Volk, WI

9:21 PM CST on November 20, 2017 (GMT -0600)
Volk

Weather History for KVOK - June, 2013

Change the Weather History Date:

Tuesday, June 4, 2013

  Actual Average Record
Temperature  
Mean Temperature 52 °F -  
Max Temperature 55 °F 69 °F 86 °F (2011)
Min Temperature 50 °F 54 °F 50 °F (1998)
Degree Days  
Heating Degree Days 12    
Growing Degree Days 2 (Base 50)    
Moisture  
Dew Point 53 °F    
Average Humidity 96    
Maximum Humidity 100    
Minimum Humidity 88    
Precipitation  
Precipitation 0.65 in - - ()
Sea Level Pressure  
Sea Level Pressure 30.14 in    
Wind  
Wind Speed 4 mph (East)    
Max Wind Speed 14 mph    
Max Gust Speed -    
Visibility 9 miles    
Events Rain    
Averages and records for this station are not official NWS values.
T = Trace of Precipitation, MM = Missing Value Source: NWS Daily Summary

Daily Weather History Graph

Daily Weather History Graph

Search for Another Location

Airport or City:

Trip Planner

Search our weather history database for the weather conditions in past years. The results will help you decide how hot, cold, wet, or windy it might be!

Date:

Astronomy

Jun. 04, 2013 Rise Set
Actual Time 5:19 AM CDT 8:39 PM CDT
Civil Twilight 4:44 AM CDT 9:14 PM CDT
Nautical Twilight 3:58 AM CDT 10:01 PM CDT
Astronomical Twilight 3:00 AM CDT 10:58 PM CDT
Moon 2:56 AM CDT (6/4) 5:02 PM CDT (6/4)
Length of Visible Light 16h 30m
Length of Day
15h 19m
Waning Crescent, 14% of the Moon is Illuminated
Jun 4
Waning Crescent
Jun 8
New
Jun 16
First Quarter
Jun 23
Full
Jun 29
Last Quarter

Hourly Weather History & Observations

Time (CDT) Temp. Dew Point Humidity Pressure Visibility Wind Dir Wind Speed Gust Speed Precip Events Conditions
12:58 AM 50.9 °F 50.0 °F 97% 30.09 in 10.0 mi NNE 1.2 mph - N/A   Overcast
1:58 AM 52.5 °F 50.7 °F 94% 30.08 in 10.0 mi Calm Calm - N/A   Overcast
2:58 AM 52.3 °F 50.7 °F 94% 30.08 in 10.0 mi ESE 4.6 mph - N/A   Mostly Cloudy
3:58 AM 53.4 °F 51.4 °F 93% 30.08 in 10.0 mi East 5.8 mph - N/A   Scattered Clouds
4:58 AM 53.2 °F 51.3 °F 93% 30.12 in 10.0 mi Calm Calm - N/A   Mostly Cloudy
5:58 AM 54.0 °F 51.4 °F 91% 30.13 in 10.0 mi Calm Calm - N/A   Scattered Clouds
6:56 AM 55.4 °F 51.8 °F 88% 30.13 in 10.0 mi ESE 4.6 mph - N/A Rain Light Rain
6:58 AM 55.4 °F 51.8 °F 88% 30.14 in 10.0 mi ESE 4.6 mph - N/A Rain Light Rain
7:13 AM 53.6 °F 51.8 °F 94% 30.13 in 7.0 mi Calm Calm - N/A Rain Light Rain
7:23 AM 53.6 °F 51.8 °F 94% 30.14 in 5.0 mi Calm Calm - N/A Rain Rain
7:38 AM 53.6 °F 51.8 °F 94% 30.13 in 10.0 mi Calm Calm - N/A Rain Light Rain
7:58 AM 53.6 °F 53.6 °F 100% 30.14 in 10.0 mi SSE 3.5 mph - N/A Rain Light Rain
8:58 AM 55.4 °F 53.6 °F 94% 30.17 in 10.0 mi NW 1.2 mph - N/A Rain Light Rain
9:58 AM 55.4 °F 53.6 °F 94% 30.19 in 10.0 mi East 3.5 mph - N/A Rain Light Rain
10:58 AM 55.4 °F 55.4 °F 100% 30.18 in 5.0 mi East 5.8 mph - N/A Rain Light Rain
11:58 AM 55.4 °F 53.6 °F 94% 30.17 in 5.0 mi ENE 5.8 mph - N/A Rain Light Rain
12:58 PM 55.4 °F 53.6 °F 94% 30.16 in 5.0 mi East 9.2 mph - N/A Rain Light Rain
1:58 PM 55.4 °F 55.4 °F 100% 30.16 in 7.0 mi ENE 4.6 mph - N/A Rain Light Rain
2:58 PM 55.4 °F 55.4 °F 100% 30.16 in 6.0 mi ENE 4.6 mph - N/A Rain Light Rain
3:58 PM 55.4 °F 55.4 °F 100% 30.16 in 10.0 mi NNE 5.8 mph - N/A   Light Drizzle
4:58 PM 55.4 °F 53.6 °F 94% 30.16 in 10.0 mi East 5.8 mph - N/A Rain Light Rain
5:58 PM 53.6 °F 53.6 °F 100% 30.18 in 6.0 mi ESE 5.8 mph - N/A Rain Light Rain
6:58 PM 53.6 °F 53.6 °F 100% 30.16 in 7.0 mi East 6.9 mph - N/A Rain Light Rain
7:52 PM 53.6 °F 53.6 °F 100% 30.14 in 7.0 mi ESE 5.8 mph - N/A Rain Light Rain
7:58 PM 53.6 °F 53.6 °F 100% 30.16 in 10.0 mi ESE 6.9 mph - N/A Rain Light Rain
8:58 PM 53.6 °F 53.6 °F 100% 30.17 in 10.0 mi NNE 3.5 mph - N/A Rain Light Rain
9:58 PM 51.8 °F 51.8 °F 100% 30.17 in 10.0 mi ESE 5.8 mph - N/A Rain Light Rain
10:56 PM 51.8 °F 51.8 °F 100% 30.12 in 10.0 mi ESE 13.8 mph - N/A   Overcast
10:58 PM 51.8 °F 51.8 °F 100% 30.13 in 10.0 mi ESE 12.7 mph - N/A   Overcast
11:11 PM 51.8 °F 51.8 °F 100% 30.14 in 10.0 mi SE 6.9 mph - N/A Rain Light Rain
11:23 PM 51.8 °F 50.0 °F 94% 30.15 in 10.0 mi ESE 8.1 mph - N/A   Overcast
11:58 PM 51.8 °F 50.7 °F 96% 30.17 in 10.0 mi ESE 5.8 mph - 0.00 in   Overcast